Regional Weather Roundup
Issued by NWS Midland/Odessa, TX

Home | Current Version | Previous Version | Text Only | Print | Product List | Glossary On
Versions: 1 2 3 4 5 6 7 8 9 10 11 12 13 14 15 16 17 18 19 20 21 22 23 24 25 26 27 28 29 30 31 32 33 34 35 36 37 38 39 40 41 42 43 44 45 46 47 48 49 50
000
ASUS44 KMAF 172210
RWRMAF
MIDLAND AREA WEATHER ROUNDUP
NATIONAL WEATHER SERVICE MIDLAND TX
500 PM CDT THU APR 17 2014

...IN SOUTHWEST TEXAS AND SOUTHEAST NEW MEXICO...

CITY           SKY/WX    TMP DP  RH WIND       PRES   REMARKS
ALPINE         SUNNY     73  28  19 NE13      30.15S
ANDREWS        FAIR      73  39  29 MISG      30.08S
ARTESIA        SUNNY     68  32  26 NE6       30.10F
BIG SPRING     PTSUNNY   74  44  33 N13       30.09S
CARLSBAD       SUNNY     74  29  19 VRB6      30.07F
DRYDEN           N/A     85  38  18 NE13      29.97F
FORT STOCKTON  SUNNY     77  35  21 N7        30.05F
GUAD PASS      SUNNY     64  30  27 E22G29    30.15F
HOBBS          SUNNY     72  34  25 NE13      30.10F
MARFA          SUNNY     73  27  17 NE15      30.12F
MIDLAND AIRPK  SUNNY     75  41  30 NE6       30.06S
MIDLAND INTL   SUNNY     76  42  29 NE13      30.05F
ODESSA         SUNNY     76  40  27 NE12G24   30.06S
PECOS          SUNNY     79  34  19 NW13      30.03F
PRESIDIO       FAIR      88  17   7 CALM      29.94F
SEMINOLE       SUNNY     71  37  28 NE8G18    30.10S
SNYDER         PTSUNNY   60  48  64 N18G29    30.12S
WINK           SUNNY     79  35  20 MISG      30.03F
$$
...OTHER STATIONS IN TEXAS...

CITY           SKY/WX    TMP DP  RH WIND       PRES   REMARKS
ABILENE        CLOUDY    62  53  72 S8        30.10S
AMARILLO       CLOUDY    49  36  61 N8        30.21S
AUSTIN         CLOUDY    64  60  87 SE8       30.06F FOG
BROWNSVILLE    CLOUDY    72  66  83 NE10      29.96R
CORPUS CHRISTI CLOUDY    71  64  78 E16       30.00S
DALLAS FTW     CLOUDY    63  53  70 E6        30.13S
DEL RIO        SUNNY     79  51  37 E5        29.96F
EL PASO        MOSUNNY   79  18  10 VRB6      30.02F
HOUSTON INT    PTSUNNY   71  56  58 SE10      30.06F
LUBBOCK        PTSUNNY   59  41  51 NE8       30.14F
SAN ANGELO     PTSUNNY   67  54  63 NE14      30.06F
SAN ANTONIO    CLOUDY    66  61  84 E9        30.05F
WACO           CLOUDY    67  56  67 E5        30.08S
WICHITA FALLS  NOT AVBL
$$
...OTHER LOCATIONS IN NEW MEXICO...

CITY           SKY/WX    TMP DP  RH WIND       PRES   REMARKS
ALAMAGORDO     MOSUNNY   77  21  12 W13       30.06F
ALBUQUERQUE    PTSUNNY   68  23  18 N5        30.11F
CANNON AFB     SUNNY     62  32  32 N13       30.15F
CLOVIS         SUNNY     63  34  34 NE10G21   30.18F
HOLLOMAN AFB   MOSUNNY   76  20  12 W6        30.05F
ROSWELL        SUNNY     72  30  21 N16       30.10F
RUIDOSO        SUNNY     59  27  29 SE16G24   30.21R
SANTA FE       SUNNY     63  27  25 SE13G24   30.13F
TRUTH OR CONSE SUNNY     74  23  15 VRB6      30.05F
TUCUMCARI      MOSUNNY   61  34  36 VRB6G16   30.17F
$$



USA.gov is the U.S. government's official web portal to all federal, state and local government web resources and services.